{"data":{"norad_id":69258,"intl_designator":"2026-117W","name":"STARLINK-37276","alt_names":[],"object_type":"PAYLOAD","status":"ACTIVE","operator":null,"country":"US","launch_date":"2026-05-29","launch_site_code":"AFETR","launch_vehicle":null,"mission":null,"orbit_class":"UNKNOWN","rcs_meters":null,"size_class":null,"mass_kg":null,"dimensions":null,"purposes":["comms"],"wikipedia_slug":null,"has_3d_model":false,"image_url":null,"decayed_at":null,"tle_current":{"epoch":"2026-09-19T23:40:54.653088Z","epoch_age_seconds":71356,"freshness":"FRESH","line1":"1 69258U 26117W   26262.98674367  .00016546  00000+0  49977-3 0  9995","line2":"2 69258  53.1572 156.4681 0000941  62.4232 297.6866 15.34398325 17587","mean_motion":15.34398325,"eccentricity":9.41e-5,"inclination_deg":53.1572,"raan_deg":156.4681,"arg_perigee_deg":62.4232,"mean_anomaly_deg":297.6866,"bstar":0.00049977,"rev_number":1758,"period_min":93.847860528654,"perigee_km":462.06449512955,"apogee_km":463.3519421997,"semimajor_km":6840.8452186646,"source":"CELESTRAK","updated_at":"2026-09-20T09:00:44.151789Z"}}}